• In Belarus
  • List of Countries
  • For 7 days
  • Water Temperature
  • Satellite Maps
  • Weather Map
  • Weather Widgets
  • user-avatar
    Login

    Hourly Weather Shevandino

    Today, 19 February, Tuesday

    Time Temperature Precipitation Wind Pressure Humidity
    00:00 -8°C° 0 mm 1 mps 743 mmHg 89%
    01:00 -9°C° 0 mm 2 mps 743 mmHg 89%
    02:00 -10°C° 0 mm 3 mps 743 mmHg 89%
    03:00 -9°C° 0 mm 3 mps 742 mmHg 89%
    04:00 -10°C° 0 mm 4 mps 742 mmHg 88%
    05:00 -10°C° 0 mm 4 mps 741 mmHg 87%
    06:00 -9°C° 0 mm 4 mps 741 mmHg 85%
    07:00 -10°C° 0 mm 5 mps 740 mmHg 82%
    08:00 -10°C° 0 mm 5 mps 740 mmHg 80%
    09:00 -7°C° 0 mm 5 mps 739 mmHg 77%
    10:00 -6°C° 0 mm 6 mps 739 mmHg 75%
    11:00 -5°C° 0 mm 6 mps 739 mmHg 72%
    12:00 -4°C° 0 mm 6 mps 738 mmHg 72%
    13:00 -4°C° 0 mm 6 mps 738 mmHg 72%
    14:00 -3°C° 0 mm 6 mps 737 mmHg 72%
    15:00 -4°C° 0 mm 5 mps 736 mmHg 75%
    16:00 -4°C° 0 mm 5 mps 736 mmHg 77%
    17:00 -5°C° 0 mm 5 mps 735 mmHg 80%
    18:00 -5°C° 0 mm 5 mps 735 mmHg 82%
    19:00 -5°C° 0 mm 6 mps 734 mmHg 85%
    20:00 -5°C° 0 mm 6 mps 734 mmHg 87%
    21:00 -4°C° 0 mm 6 mps 733 mmHg 88%
    22:00 -4°C° 0 mm 6 mps 732 mmHg 88%
    23:00 -3°C° 0 mm 6 mps 732 mmHg 88%

    Tomorrow, 20 February, Wednesday

    Time Temperature Precipitation Wind Pressure Humidity
    00:00 -3°C° 0 mm 6 mps 731 mmHg 89%
    01:00 -3°C° 0 mm 6 mps 730 mmHg 89%
    02:00 -3°C° 0 mm 6 mps 730 mmHg 90%
    03:00 -2°C° 0 mm 6 mps 729 mmHg 90%
    04:00 -1°C° 0 mm 5 mps 729 mmHg 91%
    05:00 -1°C° 0 mm 5 mps 728 mmHg 92%
    06:00 -1°C° 0.1 mm 5 mps 728 mmHg 92%
    07:00 -1°C° 0.1 mm 5 mps 728 mmHg 92%
    08:00 -1°C° 0.1 mm 4 mps 728 mmHg 92%
    09:00 -1°C° 0 mm 4 mps 728 mmHg 93%
    10:00 -1°C° 0 mm 4 mps 728 mmHg 93%
    11:00 0°C° 0 mm 5 mps 728 mmHg 94%
    12:00 0°C° 0 mm 5 mps 728 mmHg 94%
    13:00 0°C° 0 mm 5 mps 727 mmHg 94%
    14:00 0°C° 0 mm 5 mps 727 mmHg 93%
    15:00 0°C° 0.1 mm 5 mps 727 mmHg 92%
    16:00 -1°C° 0.1 mm 4 mps 727 mmHg 90%
    17:00 -1°C° 0.1 mm 4 mps 727 mmHg 89%
    18:00 -1°C° 0.1 mm 4 mps 726 mmHg 89%
    19:00 -1°C° 0.1 mm 4 mps 726 mmHg 90%
    20:00 -1°C° 0.1 mm 5 mps 726 mmHg 90%
    21:00 -1°C° 0.3 mm 5 mps 725 mmHg 90%
    22:00 -1°C° 0.3 mm 5 mps 725 mmHg 90%
    23:00 -2°C° 0.3 mm 5 mps 725 mmHg 89%

    Day after tomorrow, 21 February, Thursday

    Time Temperature Precipitation Wind Pressure Humidity
    00:00 -3°C° 0.1 mm 4 mps 725 mmHg 89%
    01:00 -4°C° 0.1 mm 4 mps 725 mmHg 88%
    02:00 -5°C° 0.1 mm 4 mps 725 mmHg 87%
    03:00 -5°C° 0.1 mm 4 mps 725 mmHg 89%
    04:00 -5°C° 0.1 mm 4 mps 726 mmHg 90%
    05:00 -4°C° 0.1 mm 4 mps 726 mmHg 91%
    06:00 -5°C° 0.3 mm 5 mps 726 mmHg 89%
    07:00 -5°C° 0.3 mm 5 mps 727 mmHg 88%
    08:00 -6°C° 0.3 mm 6 mps 727 mmHg 86%
    09:00 -6°C° 0.2 mm 6 mps 728 mmHg 85%
    10:00 -7°C° 0.2 mm 7 mps 728 mmHg 83%
    11:00 -7°C° 0.2 mm 7 mps 728 mmHg 82%
    12:00 -7°C° 0.1 mm 7 mps 729 mmHg 80%
    13:00 -7°C° 0.1 mm 7 mps 729 mmHg 79%
    14:00 -6°C° 0.1 mm 6 mps 730 mmHg 78%
    15:00 -7°C° 0.1 mm 7 mps 730 mmHg 79%
    16:00 -8°C° 0.1 mm 7 mps 731 mmHg 80%
    17:00 -8°C° 0.1 mm 7 mps 732 mmHg 82%
    18:00 -9°C° 0.1 mm 7 mps 733 mmHg 81%
    19:00 -9°C° 0.1 mm 7 mps 733 mmHg 81%
    20:00 -11°C° 0.1 mm 7 mps 734 mmHg 81%
    21:00 -11°C° 0.1 mm 6 mps 735 mmHg 80%
    22:00 -11°C° 0.1 mm 6 mps 736 mmHg 79%
    23:00 -12°C° 0.1 mm 6 mps 736 mmHg 79%

    22 February, Friday

    Time Temperature Precipitation Wind Pressure Humidity
    00:00 -14°C° 0 mm 6 mps 737 mmHg 78%
    01:00 -14°C° 0 mm 6 mps 738 mmHg 77%
    02:00 -15°C° 0 mm 6 mps 739 mmHg 76%
    03:00 -15°C° 0 mm 6 mps 739 mmHg 77%
    04:00 -15°C° 0 mm 6 mps 740 mmHg 77%
    05:00 -16°C° 0 mm 6 mps 741 mmHg 78%
    06:00 -16°C° 0 mm 6 mps 741 mmHg 78%
    07:00 -16°C° 0 mm 6 mps 742 mmHg 78%
    08:00 -16°C° 0 mm 6 mps 743 mmHg 77%
    09:00 -15°C° 0 mm 6 mps 743 mmHg 74%
    10:00 -14°C° 0 mm 7 mps 744 mmHg 71%
    11:00 -13°C° 0 mm 7 mps 744 mmHg 68%
    12:00 -13°C° 0 mm 7 mps 744 mmHg 67%
    13:00 -12°C° 0 mm 7 mps 744 mmHg 66%
    14:00 -12°C° 0 mm 7 mps 744 mmHg 64%
    15:00 -12°C° 0 mm 7 mps 744 mmHg 69%
    16:00 -12°C° 0 mm 6 mps 745 mmHg 73%
    17:00 -12°C° 0 mm 6 mps 745 mmHg 77%
    18:00 -12°C° 0.1 mm 6 mps 745 mmHg 77%
    19:00 -14°C° 0.1 mm 6 mps 746 mmHg 77%
    20:00 -14°C° 0.1 mm 6 mps 746 mmHg 77%
    21:00 -15°C° 0 mm 6 mps 747 mmHg 78%
    22:00 -14°C° 0 mm 5 mps 747 mmHg 79%
    23:00 -15°C° 0 mm 5 mps 748 mmHg 81%

    23 February, Saturday

    Time Temperature Precipitation Wind Pressure Humidity
    00:00 -15°C° 0 mm 5 mps 748 mmHg 81%
    01:00 -16°C° 0 mm 4 mps 748 mmHg 82%
    02:00 -16°C° 0 mm 4 mps 749 mmHg 83%
    03:00 -16°C° 0 mm 4 mps 749 mmHg 84%
    04:00 -17°C° 0 mm 4 mps 749 mmHg 86%
    05:00 -17°C° 0 mm 4 mps 749 mmHg 87%
    06:00 -17°C° 0 mm 4 mps 749 mmHg 88%
    07:00 -18°C° 0 mm 4 mps 749 mmHg 88%
    08:00 -17°C° 0 mm 3 mps 750 mmHg 89%
    09:00 -16°C° 0 mm 3 mps 750 mmHg 86%
    10:00 -15°C° 0 mm 3 mps 750 mmHg 83%
    11:00 -14°C° 0 mm 3 mps 750 mmHg 80%
    12:00 -13°C° 0 mm 3 mps 749 mmHg 77%
    13:00 -12°C° 0 mm 3 mps 749 mmHg 75%
    14:00 -12°C° 0 mm 3 mps 749 mmHg 72%
    15:00 -12°C° 0 mm 3 mps 749 mmHg 76%
    16:00 -12°C° 0 mm 2 mps 749 mmHg 79%
    17:00 -12°C° 0 mm 2 mps 750 mmHg 83%
    18:00 -13°C° 0 mm 2 mps 750 mmHg 84%
    19:00 -13°C° 0 mm 2 mps 750 mmHg 85%
    20:00 -14°C° 0 mm 2 mps 751 mmHg 87%
    21:00 -14°C° 0 mm 2 mps 751 mmHg 87%
    22:00 -12°C° 0 mm 1 mps 751 mmHg 88%
    23:00 -12°C° 0 mm 1 mps 752 mmHg 89%

    24 February, Sunday

    Time Temperature Precipitation Wind Pressure Humidity
    00:00 -12°C° 0 mm 1 mps 752 mmHg 90%
    01:00 -13°C° 0 mm 1 mps 752 mmHg 90%
    02:00 -13°C° 0 mm 1 mps 752 mmHg 91%
    03:00 -13°C° 0 mm 1 mps 752 mmHg 91%
    04:00 -13°C° 0 mm 1 mps 752 mmHg 91%
    05:00 -13°C° 0 mm 0 mps 753 mmHg 92%
    06:00 -13°C° 0 mm 0 mps 753 mmHg 91%
    07:00 -12°C° 0 mm 0 mps 753 mmHg 90%
    08:00 -12°C° 0 mm 0 mps 754 mmHg 89%
    09:00 -10°C° 0 mm 0 mps 754 mmHg 83%
    10:00 -9°C° 0 mm 0 mps 754 mmHg 78%
    11:00 -7°C° 0 mm 0 mps 754 mmHg 73%
    12:00 -7°C° 0 mm 1 mps 753 mmHg 73%
    13:00 -6°C° 0 mm 1 mps 753 mmHg 72%
    14:00 -4°C° 0 mm 1 mps 752 mmHg 71%
    15:00 -7°C° 0 mm 2 mps 752 mmHg 75%
    16:00 -8°C° 0 mm 2 mps 751 mmHg 79%
    17:00 -9°C° 0 mm 2 mps 751 mmHg 83%
    18:00 -9°C° 0 mm 2 mps 750 mmHg 83%
    19:00 -10°C° 0 mm 3 mps 750 mmHg 83%
    20:00 -12°C° 0 mm 3 mps 749 mmHg 83%
    21:00 -12°C° 0 mm 3 mps 748 mmHg 81%
    22:00 -11°C° 0 mm 4 mps 747 mmHg 78%
    23:00 -11°C° 0 mm 4 mps 747 mmHg 76%
    Show more